This is the latest recevied weather packets stored in our database for station/object OK1PMP-6. If no packets are shown the sender has not sent any weather packets the latest 10 day(s).
| Time | Temp. | Humidity | Pressure | Rain* | Wind** | Luminosity | Snow |
|---|---|---|---|---|---|---|---|
| 1777995082 | 26.67° C | 33% | 1007.9 hPa | 0 mm | - | 153 W/m² | - |
| 1777994165 | 26.67° C | 34% | 1007.8 hPa | 0 mm | - | 133 W/m² | - |
| 1777993266 | 27.22° C | 34% | 1007.7 hPa | 0 mm | - | 133 W/m² | - |
| 1777992360 | 27.78° C | 34% | 1008.1 hPa | 0 mm | - | 130 W/m² | - |
| 1777991457 | 27.78° C | 33% | 1008.3 hPa | 0 mm | - | 168 W/m² | - |
| 1777990556 | 27.22° C | 35% | 1008.4 hPa | 0 mm | - | 366 W/m² | - |
| 1777989652 | 27.78° C | 34% | 1008.7 hPa | 0 mm | - | 448 W/m² | - |
| 1777988755 | 27.22° C | 34% | 1009.1 hPa | 0 mm | - | 303 W/m² | - |
| 1777987851 | 26.67° C | 34% | 1009.1 hPa | 0 mm | - | 481 W/m² | - |
| 1777986945 | 27.22° C | 35% | 1008.9 hPa | 0 mm | - | 521 W/m² | - |
| 1777986050 | 26.67° C | 35% | 1009.1 hPa | 0 mm | - | 569 W/m² | - |
| 1777985139 | 26.11° C | 37% | 1009.5 hPa | 0 mm | - | 350 W/m² | - |
| 1777984531 | 26.67° C | 37% | 1009.8 hPa | 0 mm | - | 668 W/m² | - |
| 1777983334 | 25.56° C | 37% | 1009.9 hPa | 0 mm | - | 643 W/m² | - |
| 1777982919 | 24.44° C | 37% | 1010.2 hPa | 0 mm | - | 610 W/m² | - |
| 1777982492 | 24.44° C | 37% | 1010.2 hPa | 0 mm | - | 610 W/m² | - |
| 1777981537 | 25° C | 36% | 1010 hPa | 0 mm | - | 687 W/m² | - |
| 1777980623 | 23.89° C | 39% | 1010.2 hPa | 0 mm | - | 628 W/m² | - |
| 1777979722 | 23.33° C | 41% | 1010.2 hPa | 0 mm | - | 422 W/m² | - |
| 1777978819 | 23.89° C | 37% | 1010.1 hPa | 0 mm | - | 608 W/m² | - |
| 1777977918 | 23.89° C | 40% | 1010.4 hPa | 0 mm | - | 763 W/m² | - |
| 1777977021 | 22.78° C | 38% | 1010.8 hPa | 0 mm | - | 715 W/m² | - |
| 1777976116 | 23.33° C | 38% | 1010.8 hPa | 0 mm | - | 715 W/m² | - |
| 1777975211 | 23.33° C | 38% | 1010.8 hPa | 0 mm | - | 700 W/m² | - |
| 1777974309 | 24.44° C | 38% | 1011.1 hPa | 0 mm | - | 119 W/m² | - |
* Rain latest hour (hover to see other rain measurements)
** Current wind speed in m/s (hover to see current wind gust speed)